AXB2493 VIDP-VOML

Flight info

Callsign AXB2493
Flight time 2h 24m
Altitude 32000
Route DUDUM Q2 BBB B211 MABTA Q13 IKATI W17 MML
Aircraft B738/M-SDE2E3FGHIRWXY/LB1

Departure

Time 2026-04-21 10:03
Airport Indira Gandhi International Airport (VIDP)

Arrival

Time 2026-04-21 12:27
Airport Mangaluru International Airport (VOML)
Time Latitude Longitude Altitude Speed Heading
2026-04-21 09:49 28.56717 77.10950 746 ft 0 kts 284°
2026-04-21 09:55 28.56716 77.10956 745 ft 1 kts 284°
2026-04-21 09:55 28.56714 77.10966 745 ft 1 kts 283°
2026-04-21 09:56 28.56712 77.10975 745 ft 1 kts 281°
2026-04-21 09:56 28.56710 77.10985 745 ft 1 kts 280°
2026-04-21 09:56 28.56708 77.10994 745 ft 1 kts 300°
2026-04-21 09:56 28.56703 77.11002 748 ft 1 kts 334°
2026-04-21 09:57 28.56696 77.11005 745 ft 1 kts
2026-04-21 09:57 28.56693 77.11005 745 ft 0 kts 13°
2026-04-21 09:58 28.56697 77.11006 745 ft 2 kts 13°
2026-04-21 09:58 28.56720 77.11012 747 ft 5 kts 12°
2026-04-21 09:59 28.56766 77.11023 747 ft 8 kts 12°
2026-04-21 09:59 28.56801 77.11033 749 ft 3 kts 15°
2026-04-21 09:59 28.56834 77.11044 749 ft 6 kts 21°
2026-04-21 09:59 28.56854 77.11091 750 ft 8 kts 98°
2026-04-21 10:00 28.56851 77.11162 748 ft 10 kts 90°
2026-04-21 10:00 28.56850 77.11222 748 ft 12 kts 90°
2026-04-21 10:00 28.56847 77.11368 748 ft 16 kts 92°
2026-04-21 10:00 28.56842 77.11500 746 ft 18 kts 92°
2026-04-21 10:01 28.56841 77.11626 748 ft 13 kts 91°
2026-04-21 10:01 28.56840 77.11701 750 ft 15 kts 91°
2026-04-21 10:01 28.56901 77.11741 748 ft 12 kts 325°
2026-04-21 10:01 28.56948 77.11702 749 ft 13 kts 319°
2026-04-21 10:02 28.56998 77.11602 749 ft 0 kts 270°
2026-04-21 10:02 28.56998 77.11572 750 ft 13 kts 270°
2026-04-21 10:02 28.57006 77.11173 749 ft 89 kts 272°
2026-04-21 10:03 28.57025 77.10205 773 ft 151 kts 270°
2026-04-21 10:03 28.57071 77.08971 1394 ft 167 kts 274°
2026-04-21 10:03 28.57263 77.07528 1803 ft 195 kts 286°
2026-04-21 10:03 28.57726 77.06184 3005 ft 164 kts 297°
2026-04-21 10:04 28.58385 77.05215 4006 ft 157 kts 304°
2026-04-21 10:04 28.58716 77.03939 4322 ft 185 kts 274°
2026-04-21 10:04 28.58884 77.02380 4531 ft 212 kts 282°
2026-04-21 10:04 28.59194 77.00656 4814 ft 232 kts 282°
2026-04-21 10:05 28.59514 76.98857 5163 ft 251 kts 282°
2026-04-21 10:05 28.59853 76.96857 5761 ft 260 kts 281°
2026-04-21 10:05 28.60184 76.94817 6567 ft 263 kts 280°
2026-04-21 10:05 28.60509 76.92771 7383 ft 264 kts 280°
2026-04-21 10:06 28.60833 76.90722 8245 ft 263 kts 280°
2026-04-21 10:06 28.61006 76.88630 8966 ft 272 kts 264°
2026-04-21 10:06 28.60349 76.86585 9699 ft 280 kts 239°
2026-04-21 10:06 28.58985 76.84979 10439 ft 289 kts 217°
2026-04-21 10:07 28.57132 76.83990 11116 ft 298 kts 203°
2026-04-21 10:07 28.55146 76.83224 11795 ft 304 kts 201°
2026-04-21 10:07 28.53114 76.82480 12482 ft 309 kts 201°
2026-04-21 10:07 28.51050 76.81724 13190 ft 313 kts 201°
2026-04-21 10:08 28.48964 76.80952 13854 ft 318 kts 201°
2026-04-21 10:08 28.46879 76.80172 14485 ft 321 kts 201°
2026-04-21 10:08 28.44719 76.79358 15165 ft 324 kts 201°
2026-04-21 10:08 28.42595 76.78553 15781 ft 328 kts 201°
2026-04-21 10:09 28.40416 76.77725 16435 ft 332 kts 201°
2026-04-21 10:09 28.38217 76.76889 17066 ft 336 kts 201°
2026-04-21 10:09 28.35989 76.76042 17687 ft 340 kts 201°
2026-04-21 10:09 28.33731 76.75183 18287 ft 344 kts 201°
2026-04-21 10:10 28.31452 76.74316 18811 ft 348 kts 201°
2026-04-21 10:10 28.29136 76.73437 19331 ft 353 kts 202°
2026-04-21 10:10 28.26789 76.72506 19638 ft 365 kts 204°
2026-04-21 10:10 28.24358 76.71455 19758 ft 383 kts 204°
2026-04-21 10:11 28.21821 76.70331 19871 ft 399 kts 204°
2026-04-21 10:11 28.19186 76.69165 19978 ft 415 kts 204°
2026-04-21 10:11 28.16445 76.67963 20135 ft 427 kts 204°
2026-04-21 10:11 28.13641 76.66743 20492 ft 433 kts 204°
2026-04-21 10:12 28.10818 76.65523 20965 ft 435 kts 204°
2026-04-21 10:12 28.07979 76.64297 21435 ft 438 kts 204°
2026-04-21 10:12 28.05123 76.63064 21859 ft 441 kts 204°
2026-04-21 10:12 28.02241 76.61820 22262 ft 445 kts 204°
2026-04-21 10:13 27.99335 76.60566 22687 ft 448 kts 204°
2026-04-21 10:13 27.96414 76.59312 23212 ft 448 kts 203°
2026-04-21 10:13 27.93489 76.58061 23561 ft 452 kts 204°
2026-04-21 10:13 27.90535 76.56799 23860 ft 456 kts 204°
2026-04-21 10:14 27.87557 76.55527 24178 ft 459 kts 204°
2026-04-21 10:14 27.84555 76.54245 24515 ft 462 kts 204°
2026-04-21 10:14 27.81580 76.52975 24832 ft 465 kts 204°
2026-04-21 10:14 27.78627 76.51500 25138 ft 463 kts 214°
2026-04-21 10:15 27.75893 76.49496 25448 ft 463 kts 219°
2026-04-21 10:15 27.73275 76.47419 25677 ft 468 kts 219°
2026-04-21 10:15 27.70608 76.45298 25992 ft 470 kts 219°
2026-04-21 10:15 27.67917 76.43195 26322 ft 472 kts 219°
2026-04-21 10:16 27.65188 76.41104 26647 ft 474 kts 218°
2026-04-21 10:16 27.62443 76.39027 26944 ft 477 kts 218°
2026-04-21 10:16 27.59671 76.36942 27247 ft 480 kts 218°
2026-04-21 10:16 27.56888 76.34852 27518 ft 482 kts 218°
2026-04-21 10:17 27.54090 76.32748 27801 ft 484 kts 218°
2026-04-21 10:17 27.51275 76.30638 28079 ft 487 kts 218°
2026-04-21 10:17 27.48403 76.28593 28384 ft 489 kts 217°
2026-04-21 10:17 27.45492 76.26606 28785 ft 489 kts 216°
2026-04-21 10:18 27.42571 76.24646 29265 ft 486 kts 216°
2026-04-21 10:18 27.39687 76.22668 29676 ft 485 kts 217°
2026-04-21 10:18 27.36805 76.20695 29984 ft 487 kts 216°
2026-04-21 10:18 27.33901 76.18726 30337 ft 486 kts 216°
2026-04-21 10:19 27.31015 76.16773 30723 ft 484 kts 216°
2026-04-21 10:19 27.28136 76.14821 31092 ft 483 kts 216°
2026-04-21 10:19 27.25269 76.12868 31486 ft 480 kts 216°
2026-04-21 10:19 27.22423 76.10923 31785 ft 479 kts 216°
2026-04-21 10:20 27.19561 76.08964 31765 ft 483 kts 216°
2026-04-21 10:20 27.13842 76.05057 31787 ft 478 kts 216°
2026-04-21 10:21 27.08161 76.01182 31785 ft 477 kts 216°
2026-04-21 10:21 27.02681 75.97448 31783 ft 475 kts 216°
2026-04-21 10:22 26.97040 75.93609 31798 ft 475 kts 216°
2026-04-21 10:22 26.91432 75.89796 31804 ft 475 kts 216°
2026-04-21 10:23 26.85772 75.85953 31804 ft 475 kts 216°
2026-04-21 10:23 26.79904 75.82465 31802 ft 482 kts 205°
2026-04-21 10:24 26.73589 75.79842 31791 ft 484 kts 204°
2026-04-21 10:24 26.67254 75.77261 31784 ft 484 kts 204°
2026-04-21 10:25 26.60939 75.74626 31795 ft 485 kts 204°
2026-04-21 10:25 26.54629 75.71959 31796 ft 485 kts 204°
2026-04-21 10:26 26.48309 75.69284 31789 ft 485 kts 204°
2026-04-21 10:26 26.41999 75.66619 31782 ft 485 kts 204°
2026-04-21 10:27 26.35677 75.63955 31790 ft 485 kts 204°
2026-04-21 10:27 26.29360 75.61296 31788 ft 485 kts 204°
2026-04-21 10:28 26.23044 75.58641 31790 ft 485 kts 204°
2026-04-21 10:28 26.16730 75.55989 31792 ft 485 kts 204°
2026-04-21 10:29 26.10455 75.53356 31784 ft 485 kts 204°
2026-04-21 10:29 26.04143 75.50711 31797 ft 484 kts 204°
2026-04-21 10:30 25.97854 75.48079 31801 ft 484 kts 204°
2026-04-21 10:30 25.91545 75.45436 31803 ft 485 kts 204°
2026-04-21 10:31 25.85224 75.42801 31808 ft 485 kts 204°
2026-04-21 10:31 25.78887 75.40202 31793 ft 485 kts 203°
2026-04-21 10:32 25.72557 75.37607 31798 ft 484 kts 203°
2026-04-21 10:32 25.66243 75.35017 31808 ft 484 kts 203°
2026-04-21 10:33 25.59915 75.32420 31805 ft 484 kts 203°
2026-04-21 10:33 25.53597 75.29831 31808 ft 484 kts 203°
2026-04-21 10:34 25.47320 75.27261 31795 ft 484 kts 203°
2026-04-21 10:34 25.40995 75.24675 31811 ft 484 kts 203°
2026-04-21 10:35 25.34669 75.22091 31810 ft 485 kts 203°
2026-04-21 10:35 25.28325 75.19503 31810 ft 486 kts 203°
2026-04-21 10:36 25.21974 75.16915 31817 ft 486 kts 203°
2026-04-21 10:36 25.15613 75.14326 31810 ft 487 kts 202°
2026-04-21 10:37 25.09279 75.11751 31822 ft 488 kts 202°
2026-04-21 10:37 25.02907 75.09163 31816 ft 488 kts 202°
2026-04-21 10:38 24.96538 75.06579 31831 ft 488 kts 202°
2026-04-21 10:38 24.90154 75.03991 31831 ft 488 kts 202°
2026-04-21 10:39 24.83781 75.01412 31822 ft 487 kts 202°
2026-04-21 10:39 24.77619 74.98920 31839 ft 487 kts 202°
2026-04-21 10:40 24.71260 74.96351 31833 ft 486 kts 202°
2026-04-21 10:40 24.64910 74.93788 31839 ft 486 kts 202°
2026-04-21 10:41 24.58557 74.91227 31845 ft 485 kts 202°
2026-04-21 10:41 24.52258 74.88685 31838 ft 485 kts 202°
2026-04-21 10:42 24.46947 74.86538 31846 ft 485 kts 202°
2026-04-21 10:42 24.40647 74.83992 31844 ft 485 kts 202°
2026-04-21 10:43 24.34303 74.81432 31855 ft 485 kts 202°
2026-04-21 10:43 24.27961 74.78876 31840 ft 486 kts 202°
2026-04-21 10:44 24.21619 74.76323 31856 ft 486 kts 202°
2026-04-21 10:44 24.15275 74.73772 31848 ft 486 kts 202°
2026-04-21 10:45 24.08925 74.71220 31862 ft 486 kts 202°
2026-04-21 10:45 24.02577 74.68672 31861 ft 485 kts 202°
2026-04-21 10:46 23.96249 74.66138 31863 ft 485 kts 202°
2026-04-21 10:46 23.89920 74.63607 31854 ft 484 kts 202°
2026-04-21 10:47 23.83591 74.61079 31851 ft 484 kts 201°
2026-04-21 10:47 23.77278 74.58558 31866 ft 483 kts 201°
2026-04-21 10:48 23.70983 74.56046 31866 ft 484 kts 201°
2026-04-21 10:48 23.64665 74.53529 31857 ft 484 kts 201°
2026-04-21 10:49 23.58336 74.51009 31862 ft 484 kts 201°
2026-04-21 10:49 23.52002 74.48490 31852 ft 484 kts 201°
2026-04-21 10:50 23.45672 74.45975 31848 ft 484 kts 201°
2026-04-21 10:50 23.39329 74.43458 31858 ft 484 kts 201°
2026-04-21 10:51 23.32991 74.40945 31861 ft 484 kts 201°
2026-04-21 10:51 23.26694 74.38451 31847 ft 484 kts 201°
2026-04-21 10:52 23.20362 74.35944 31854 ft 484 kts 201°
2026-04-21 10:52 23.14034 74.33443 31851 ft 484 kts 201°
2026-04-21 10:53 23.07707 74.30947 31852 ft 484 kts 201°
2026-04-21 10:53 23.01381 74.28452 31852 ft 484 kts 201°
2026-04-21 10:54 22.95055 74.25959 31844 ft 484 kts 200°
2026-04-21 10:54 22.88765 74.23482 31850 ft 484 kts 200°
2026-04-21 10:55 22.82438 74.20994 31843 ft 484 kts 200°
2026-04-21 10:55 22.76104 74.18505 31843 ft 484 kts 200°
2026-04-21 10:56 22.69786 74.16024 31845 ft 483 kts 200°
2026-04-21 10:56 22.63458 74.13541 31843 ft 484 kts 200°
2026-04-21 10:57 22.57128 74.11061 31837 ft 483 kts 200°
2026-04-21 10:57 22.50795 74.08579 31833 ft 483 kts 200°
2026-04-21 10:58 22.44478 74.06105 31829 ft 483 kts 200°
2026-04-21 10:58 22.38167 74.03636 31830 ft 482 kts 200°
2026-04-21 10:59 22.31854 74.01168 31826 ft 482 kts 200°
2026-04-21 10:59 22.25749 73.98784 31831 ft 482 kts 200°
2026-04-21 11:00 22.19443 73.96324 31831 ft 482 kts 200°
2026-04-21 11:00 22.13137 73.93867 31834 ft 482 kts 200°
2026-04-21 11:01 22.06834 73.91412 31836 ft 482 kts 200°
2026-04-21 11:01 22.00526 73.88958 31836 ft 482 kts 200°
2026-04-21 11:02 21.91125 73.85305 31837 ft 481 kts 200°
2026-04-21 11:02 21.84832 73.82863 31842 ft 480 kts 200°
2026-04-21 11:03 21.78550 73.80427 31845 ft 479 kts 200°
2026-04-21 11:03 21.72287 73.78001 31834 ft 478 kts 200°
2026-04-21 11:04 21.66025 73.75577 31841 ft 478 kts 200°
2026-04-21 11:04 21.59784 73.73164 31845 ft 476 kts 200°
2026-04-21 11:05 21.53569 73.70763 31833 ft 474 kts 200°
2026-04-21 11:05 21.47371 73.68371 31833 ft 472 kts 200°
2026-04-21 11:06 21.41215 73.65997 31831 ft 470 kts 200°
2026-04-21 11:06 21.35054 73.63624 31822 ft 470 kts 199°
2026-04-21 11:07 21.28879 73.61245 31832 ft 472 kts 199°
2026-04-21 11:07 21.22681 73.58861 31837 ft 474 kts 199°
2026-04-21 11:08 21.16450 73.56467 31837 ft 477 kts 199°
2026-04-21 11:08 21.10137 73.54256 31829 ft 479 kts 197°
2026-04-21 11:09 21.03756 73.52169 31833 ft 480 kts 197°
2026-04-21 11:09 20.97375 73.50064 31826 ft 477 kts 197°
2026-04-21 11:10 20.91119 73.47971 31817 ft 468 kts 197°
2026-04-21 11:10 20.84901 73.45882 31834 ft 468 kts 197°
2026-04-21 11:11 20.78672 73.43791 31832 ft 469 kts 197°
2026-04-21 11:11 20.72479 73.41716 31823 ft 470 kts 197°
2026-04-21 11:12 20.66236 73.39626 31833 ft 471 kts 197°
2026-04-21 11:12 20.60081 73.37571 31824 ft 448 kts 198°
2026-04-21 11:13 20.54207 73.35610 31832 ft 441 kts 199°
2026-04-21 11:13 20.48288 73.33626 31825 ft 450 kts 198°
2026-04-21 11:14 20.42266 73.31618 31831 ft 454 kts 198°
2026-04-21 11:14 20.36318 73.29639 31811 ft 448 kts 198°
2026-04-21 11:15 20.30295 73.27631 31867 ft 457 kts 198°
2026-04-21 11:15 20.24279 73.25629 31831 ft 448 kts 199°
2026-04-21 11:16 20.18357 73.23659 31848 ft 446 kts 198°
2026-04-21 11:16 20.12418 73.21683 31843 ft 450 kts 198°
2026-04-21 11:17 20.06426 73.19692 31843 ft 452 kts 199°
2026-04-21 11:17 20.00453 73.17709 31830 ft 448 kts 198°
2026-04-21 11:18 19.94508 73.15736 31833 ft 447 kts 199°
2026-04-21 11:18 19.88580 73.13772 31827 ft 445 kts 199°
2026-04-21 11:19 19.82670 73.11812 31822 ft 444 kts 199°
2026-04-21 11:19 19.76765 73.09858 31823 ft 444 kts 199°
2026-04-21 11:20 19.70860 73.07905 31806 ft 444 kts 199°
2026-04-21 11:20 19.64986 73.05963 31791 ft 445 kts 198°
2026-04-21 11:21 19.59075 73.04012 31794 ft 445 kts 198°
2026-04-21 11:21 19.53124 73.02048 31795 ft 445 kts 198°
2026-04-21 11:22 19.47253 73.00112 31789 ft 445 kts 198°
2026-04-21 11:22 19.41482 72.98211 31776 ft 445 kts 198°
2026-04-21 11:23 19.35567 72.96263 31781 ft 444 kts 198°
2026-04-21 11:23 19.29654 72.94317 31765 ft 445 kts 198°
2026-04-21 11:24 19.24732 72.92698 31785 ft 446 kts 198°
2026-04-21 11:24 19.18795 72.90747 31785 ft 447 kts 198°
2026-04-21 11:25 19.12850 72.88806 31780 ft 448 kts 196°
2026-04-21 11:25 19.06648 72.88126 31781 ft 452 kts 178°
2026-04-21 11:26 19.00456 72.89339 31781 ft 454 kts 167°
2026-04-21 11:26 18.94320 72.90967 31770 ft 454 kts 168°
2026-04-21 11:27 18.88195 72.92570 31767 ft 453 kts 168°
2026-04-21 11:27 18.82080 72.94135 31771 ft 452 kts 168°
2026-04-21 11:28 18.75973 72.95682 31777 ft 447 kts 169°
2026-04-21 11:28 18.69980 72.97199 31791 ft 442 kts 169°
2026-04-21 11:29 18.63997 72.98712 31797 ft 441 kts 170°
2026-04-21 11:29 18.58033 73.00220 31785 ft 440 kts 170°
2026-04-21 11:30 18.52088 73.01722 31786 ft 438 kts 170°
2026-04-21 11:30 18.46196 73.03210 31788 ft 437 kts 170°
2026-04-21 11:31 18.40288 73.04701 31787 ft 436 kts 170°
2026-04-21 11:31 18.34403 73.06184 31786 ft 435 kts 170°
2026-04-21 11:32 18.28528 73.07665 31782 ft 433 kts 170°
2026-04-21 11:32 18.22682 73.09139 31784 ft 432 kts 170°
2026-04-21 11:33 18.16848 73.10605 31800 ft 430 kts 170°
2026-04-21 11:33 18.11031 73.12067 31790 ft 429 kts 171°
2026-04-21 11:34 18.05226 73.13526 31795 ft 429 kts 171°
2026-04-21 11:34 17.99432 73.14981 31788 ft 429 kts 171°
2026-04-21 11:35 17.93624 73.16438 31786 ft 429 kts 171°
2026-04-21 11:35 17.87806 73.17897 31792 ft 430 kts 171°
2026-04-21 11:36 17.81976 73.19358 31796 ft 431 kts 170°
2026-04-21 11:36 17.76140 73.20819 31789 ft 432 kts 170°
2026-04-21 11:37 17.70294 73.22282 31790 ft 432 kts 170°
2026-04-21 11:37 17.64451 73.23744 31797 ft 431 kts 171°
2026-04-21 11:38 17.58604 73.25206 31802 ft 431 kts 171°
2026-04-21 11:38 17.52772 73.26663 31800 ft 430 kts 171°
2026-04-21 11:39 17.46994 73.28105 31798 ft 429 kts 171°
2026-04-21 11:39 17.41190 73.29553 31799 ft 429 kts 171°
2026-04-21 11:40 17.35390 73.30999 31789 ft 427 kts 171°
2026-04-21 11:40 17.29628 73.32436 31792 ft 424 kts 171°
2026-04-21 11:41 17.23894 73.33863 31792 ft 423 kts 171°
2026-04-21 11:41 17.18187 73.35283 31800 ft 422 kts 171°
2026-04-21 11:42 17.12595 73.37277 31814 ft 430 kts 158°
2026-04-21 11:42 17.07468 73.40619 31812 ft 436 kts 152°
2026-04-21 11:43 17.02368 73.44060 31806 ft 437 kts 153°
2026-04-21 11:43 16.97246 73.47470 31812 ft 438 kts 153°
2026-04-21 11:44 16.92088 73.50885 31811 ft 439 kts 153°
2026-04-21 11:44 16.86917 73.54306 31823 ft 440 kts 153°
2026-04-21 11:45 16.81705 73.57648 31824 ft 438 kts 156°
2026-04-21 11:45 16.76319 73.60602 31821 ft 437 kts 158°
2026-04-21 11:46 16.70948 73.63482 31816 ft 436 kts 158°
2026-04-21 11:46 16.65559 73.66405 31817 ft 436 kts 158°
2026-04-21 11:47 16.60196 73.69335 31827 ft 434 kts 158°
2026-04-21 11:47 16.54848 73.72258 31828 ft 434 kts 158°
2026-04-21 11:48 16.49505 73.75176 31829 ft 433 kts 158°
2026-04-21 11:48 16.44168 73.78090 31833 ft 432 kts 158°
2026-04-21 11:49 16.38838 73.80993 31829 ft 432 kts 158°
2026-04-21 11:49 16.33454 73.83756 31840 ft 431 kts 160°
2026-04-21 11:50 16.28045 73.86470 31837 ft 431 kts 160°
2026-04-21 11:50 16.22646 73.89205 31830 ft 431 kts 159°
2026-04-21 11:51 16.17245 73.91944 31834 ft 431 kts 159°
2026-04-21 11:51 16.11842 73.94667 31841 ft 431 kts 160°
2026-04-21 11:52 16.06449 73.97383 31826 ft 432 kts 160°
2026-04-21 11:52 16.01143 74.00056 31822 ft 432 kts 160°
2026-04-21 11:53 15.95805 74.02744 31817 ft 432 kts 160°
2026-04-21 11:53 15.90395 74.05467 31814 ft 432 kts 160°
2026-04-21 11:54 15.84990 74.08187 31837 ft 431 kts 160°
2026-04-21 11:54 15.79621 74.10886 31840 ft 432 kts 160°
2026-04-21 11:55 15.74215 74.13601 31824 ft 431 kts 160°
2026-04-21 11:55 15.68817 74.16312 31826 ft 430 kts 160°
2026-04-21 11:56 15.63421 74.19022 31827 ft 429 kts 160°
2026-04-21 11:56 15.58044 74.21721 31836 ft 429 kts 160°
2026-04-21 11:57 15.52664 74.24414 31831 ft 430 kts 160°
2026-04-21 11:57 15.47306 74.27098 31829 ft 430 kts 160°
2026-04-21 11:58 15.41912 74.29798 31815 ft 430 kts 160°
2026-04-21 11:58 15.36519 74.32497 31829 ft 431 kts 160°
2026-04-21 11:59 15.31111 74.35202 31815 ft 432 kts 160°
2026-04-21 11:59 15.25703 74.37905 31809 ft 432 kts 160°
2026-04-21 12:00 15.20274 74.40619 31810 ft 432 kts 160°
2026-04-21 12:00 15.14862 74.43321 31815 ft 432 kts 160°
2026-04-21 12:01 15.09441 74.46028 31794 ft 433 kts 159°
2026-04-21 12:01 15.04012 74.48753 31803 ft 433 kts 159°
2026-04-21 12:02 14.95893 74.52834 31820 ft 433 kts 159°
2026-04-21 12:03 14.90481 74.55550 31813 ft 432 kts 159°
2026-04-21 12:03 14.85112 74.58244 31821 ft 431 kts 159°
2026-04-21 12:04 14.79720 74.60946 31824 ft 431 kts 159°
2026-04-21 12:04 14.74332 74.63646 31830 ft 430 kts 159°
2026-04-21 12:05 14.69814 74.65908 31827 ft 430 kts 160°
2026-04-21 12:05 14.64422 74.68606 31724 ft 433 kts 160°
2026-04-21 12:05 14.61685 74.69973 31200 ft 439 kts 159°
2026-04-21 12:06 14.58944 74.71346 30727 ft 437 kts 159°
2026-04-21 12:06 14.56215 74.72713 30268 ft 434 kts 159°
2026-04-21 12:06 14.53508 74.74068 29790 ft 431 kts 159°
2026-04-21 12:06 14.50805 74.75399 29255 ft 428 kts 161°
2026-04-21 12:07 14.48013 74.76393 28725 ft 422 kts 170°
2026-04-21 12:07 14.45151 74.76935 28202 ft 415 kts 179°
2026-04-21 12:07 14.42277 74.77144 27707 ft 413 kts 180°
2026-04-21 12:07 14.39413 74.77343 27203 ft 412 kts 179°
2026-04-21 12:08 14.36558 74.77547 26714 ft 410 kts 179°
2026-04-21 12:08 14.33708 74.77756 26234 ft 409 kts 179°
2026-04-21 12:08 14.30919 74.77967 25768 ft 407 kts 179°
2026-04-21 12:08 14.28099 74.78184 25299 ft 405 kts 178°
2026-04-21 12:09 14.25291 74.78402 24854 ft 404 kts 178°
2026-04-21 12:09 14.22493 74.78621 24403 ft 402 kts 178°
2026-04-21 12:09 14.19704 74.78839 23952 ft 400 kts 178°
2026-04-21 12:09 14.16929 74.79057 23526 ft 399 kts 178°
2026-04-21 12:10 14.14167 74.79273 23016 ft 397 kts 177°
2026-04-21 12:10 14.11487 74.79483 22515 ft 396 kts 177°
2026-04-21 12:10 14.08983 74.79679 22053 ft 394 kts 177°
2026-04-21 12:10 14.06296 74.79890 21564 ft 393 kts 177°
2026-04-21 12:11 14.03573 74.80103 21075 ft 391 kts 176°
2026-04-21 12:11 14.00868 74.80314 20588 ft 389 kts 176°
2026-04-21 12:11 13.98182 74.80524 20120 ft 387 kts 176°
2026-04-21 12:11 13.95495 74.80734 19662 ft 385 kts 176°
2026-04-21 12:12 13.92831 74.80941 19193 ft 382 kts 175°
2026-04-21 12:12 13.90191 74.81148 18745 ft 380 kts 175°
2026-04-21 12:12 13.87570 74.81352 18339 ft 376 kts 175°
2026-04-21 12:12 13.84977 74.81554 17905 ft 372 kts 174°
2026-04-21 12:13 13.82406 74.81755 17461 ft 368 kts 174°
2026-04-21 12:13 13.79874 74.81951 17089 ft 362 kts 175°
2026-04-21 12:13 13.77374 74.82147 16710 ft 358 kts 174°
2026-04-21 12:13 13.74903 74.82340 16341 ft 354 kts 174°
2026-04-21 12:14 13.72491 74.82529 15984 ft 351 kts 174°
2026-04-21 12:14 13.70067 74.82719 15627 ft 348 kts 174°
2026-04-21 12:14 13.67651 74.82908 15208 ft 350 kts 174°
2026-04-21 12:14 13.65212 74.83099 14801 ft 352 kts 174°
2026-04-21 12:15 13.62768 74.83289 14383 ft 352 kts 174°
2026-04-21 12:15 13.60332 74.83479 13976 ft 350 kts 174°
2026-04-21 12:15 13.57902 74.83669 13550 ft 349 kts 174°
2026-04-21 12:15 13.55484 74.83857 13100 ft 348 kts 173°
2026-04-21 12:16 13.53077 74.84044 12647 ft 346 kts 173°
2026-04-21 12:16 13.50686 74.84230 12155 ft 342 kts 173°
2026-04-21 12:16 13.48335 74.84412 11671 ft 337 kts 173°
2026-04-21 12:16 13.46011 74.84593 11192 ft 332 kts 173°
2026-04-21 12:17 13.43748 74.84916 10705 ft 325 kts 159°
2026-04-21 12:17 13.41705 74.85823 10310 ft 317 kts 150°
2026-04-21 12:17 13.39760 74.86860 9908 ft 312 kts 149°
2026-04-21 12:17 13.37862 74.87888 9546 ft 304 kts 149°
2026-04-21 12:18 13.36013 74.88883 9164 ft 297 kts 149°
2026-04-21 12:18 13.34203 74.89858 8794 ft 291 kts 149°
2026-04-21 12:18 13.32430 74.90817 8408 ft 285 kts 149°
2026-04-21 12:18 13.30692 74.91763 8044 ft 280 kts 149°
2026-04-21 12:19 13.28999 74.92689 7721 ft 270 kts 149°
2026-04-21 12:19 13.27378 74.93577 7380 ft 258 kts 149°
2026-04-21 12:19 13.25829 74.94426 7039 ft 247 kts 149°
2026-04-21 12:19 13.24340 74.95243 6693 ft 238 kts 149°
2026-04-21 12:20 13.22901 74.96037 6409 ft 231 kts 149°
2026-04-21 12:20 13.21498 74.96814 6118 ft 225 kts 149°
2026-04-21 12:20 13.20135 74.97571 5807 ft 221 kts 148°
2026-04-21 12:20 13.18790 74.98322 5518 ft 220 kts 149°
2026-04-21 12:21 13.17440 74.99077 5240 ft 221 kts 148°
2026-04-21 12:21 13.16109 74.99834 4963 ft 221 kts 149°
2026-04-21 12:21 13.14843 75.00580 4713 ft 213 kts 149°
2026-04-21 12:21 13.13557 75.01349 4409 ft 209 kts 149°
2026-04-21 12:22 13.12322 75.02096 4115 ft 205 kts 149°
2026-04-21 12:22 13.11117 75.02828 3821 ft 203 kts 149°
2026-04-21 12:22 13.09901 75.03559 3535 ft 202 kts 153°
2026-04-21 12:22 13.08548 75.03837 3239 ft 200 kts 190°
2026-04-21 12:23 13.07277 75.03357 3015 ft 193 kts 207°
2026-04-21 12:23 13.06049 75.02740 2827 ft 200 kts 209°
2026-04-21 12:23 13.04814 75.02115 2531 ft 194 kts 207°
2026-04-21 12:23 13.03659 75.01519 2431 ft 177 kts 210°
2026-04-21 12:24 13.02757 75.00729 2446 ft 169 kts 242°
2026-04-21 12:24 13.02142 74.99674 2396 ft 173 kts 236°
2026-04-21 12:24 13.01439 74.98664 2229 ft 173 kts 240°
2026-04-21 12:24 13.00841 74.97649 2005 ft 162 kts 242°
2026-04-21 12:25 13.00275 74.96695 1795 ft 150 kts 242°
2026-04-21 12:25 12.99727 74.95775 1640 ft 155 kts 242°
2026-04-21 12:25 12.99169 74.94850 1431 ft 150 kts 244°
2026-04-21 12:25 12.98636 74.93960 1234 ft 141 kts 242°
2026-04-21 12:26 12.98124 74.93102 1086 ft 146 kts 239°
2026-04-21 12:26 12.97586 74.92213 913 ft 145 kts 243°
2026-04-21 12:26 12.97068 74.91373 737 ft 141 kts 240°
2026-04-21 12:26 12.96547 74.90487 593 ft 145 kts 244°
2026-04-21 12:27 12.96030 74.89607 378 ft 144 kts 240°
2026-04-21 12:27 12.95528 74.88778 315 ft 120 kts 239°
2026-04-21 12:27 12.95168 74.88190 318 ft 63 kts 237°
2026-04-21 12:27 12.95008 74.87921 317 ft 26 kts 238°
2026-04-21 12:28 12.94942 74.87814 316 ft 11 kts 238°
2026-04-21 12:28 12.94952 74.87748 314 ft 11 kts 321°
2026-04-21 12:28 12.95003 74.87711 317 ft 5 kts 329°
2026-04-21 12:28 12.95033 74.87692 317 ft 5 kts 329°
2026-04-21 12:29 12.95047 74.87661 317 ft 6 kts 261°
2026-04-21 12:29 12.95022 74.87617 317 ft 9 kts 243°
2026-04-21 12:29 12.95020 74.87547 318 ft 10 kts 273°
2026-04-21 12:29 12.94999 74.87491 318 ft 7 kts 237°
2026-04-21 12:30 12.94976 74.87451 318 ft 6 kts 240°
2026-04-21 12:30 12.94978 74.87418 318 ft 5 kts 334°
2026-04-21 12:30 12.94979 74.87418 316 ft 0 kts 334°
2026-04-21 12:30 12.94987 74.87411 317 ft 2 kts 328°
2026-04-21 12:31 12.94999 74.87404 318 ft 2 kts 328°
2026-04-21 12:31 12.95008 74.87398 318 ft 1 kts 328°
2026-04-21 12:31 12.95009 74.87398 318 ft 0 kts 329°